Weather History for KFDY - January, 2015

Change the Weather History Date:

Sunday, January 18, 2015

  Actual Average Record
Temperature  
Mean Temperature 38 °F -  
Max Temperature 42 °F 30 °F 59 °F (1949)
Min Temperature 34 °F 17 °F -6 °F (1977)
Degree Days  
Heating Degree Days 27    
Moisture  
Dew Point 31 °F    
Average Humidity 82    
Maximum Humidity 89    
Minimum Humidity 62    
Precipitation  
Precipitation 0.02 in - - ()
Sea Level Pressure  
Sea Level Pressure 29.80 in    
Wind  
Wind Speed 15 mph (WSW)    
Max Wind Speed 21 mph    
Max Gust Speed 24 mph    
Visibility 10 miles    
Events Rain    
Averages and records for this station are not official NWS values.
T = Trace of Precipitation, MM = Missing Value Source: NWS Daily Summary

Daily Weather History Graph

Daily Weather History Graph

Search for Another Location

Airport or City:

Trip Planner

Search our weather history database for the weather conditions in past years. The results will help you decide how hot, cold, wet, or windy it might be!

Date:

Astronomy

Jan. 18, 2015 Rise Set
Actual Time 7:56 AM EST 5:34 PM EST
Civil Twilight 7:26 AM EST 6:04 PM EST
Nautical Twilight 6:52 AM EST 6:38 PM EST
Astronomical Twilight 6:19 AM EST 7:11 PM EST
Moon 5:50 AM EST (1/18) 3:57 PM EST (1/18)
Length of Visible Light 10h 38m
Length of Day
9h 38m
Waning Crescent, 5% of the Moon is Illuminated
Jan 18
Waning Crescent
Jan 20
New
Jan 26
First Quarter
Feb 3
Full
Feb 11
Last Quarter

Hourly Weather History & Observations

Time (EST) Temp. Windchill Dew Point Humidity Pressure Visibility Wind Dir Wind Speed Gust Speed Precip Events Conditions
12:53 AM 42.1 °F 34.2 °F 30.0 °F 62% 29.70 in 10.0 mi SW 16.1 mph - N/A   Overcast
1:53 AM 42.1 °F 34.2 °F 30.9 °F 65% 29.70 in 10.0 mi WSW 16.1 mph - N/A   Overcast
2:31 AM 39.0 °F 30.3 °F 33.1 °F 79% 29.71 in 10.0 mi West 16.1 mph - 0.00 in Rain Light Rain
2:53 AM 37.9 °F 27.9 °F 33.1 °F 83% 29.72 in 9.0 mi WSW 19.6 mph - 0.01 in Rain Light Rain
3:35 AM 37.0 °F 28.5 °F 33.1 °F 86% 29.71 in 10.0 mi WSW 13.8 mph - 0.00 in Rain Light Rain
3:53 AM 37.0 °F 28.1 °F 33.1 °F 86% 29.71 in 10.0 mi SW 15.0 mph - 0.01 in Rain Light Rain
4:53 AM 36.0 °F 27.5 °F 33.1 °F 89% 29.71 in 10.0 mi SSW 12.7 mph - 0.00 in   Overcast
5:53 AM 36.0 °F 28.0 °F 32.0 °F 86% 29.71 in 10.0 mi SW 11.5 mph - N/A   Partly Cloudy
6:53 AM 37.0 °F 29.3 °F 32.0 °F 82% 29.73 in 10.0 mi SW 11.5 mph - N/A   Overcast
7:53 AM 37.0 °F 29.3 °F 32.0 °F 82% 29.73 in 10.0 mi SW 11.5 mph - N/A   Overcast
8:15 AM 37.0 °F 29.3 °F 32.0 °F 82% 29.72 in 10.0 mi SW 11.5 mph - 0.00 in   Overcast
8:53 AM 37.0 °F 28.1 °F 33.1 °F 86% 29.74 in 4.0 mi SW 15.0 mph - 0.00 in   Overcast
9:36 AM 36.0 °F 26.0 °F 33.1 °F 89% 29.74 in 8.0 mi WSW 17.3 mph - 0.00 in   Overcast
9:53 AM 36.0 °F 26.0 °F 32.0 °F 86% 29.76 in 10.0 mi WSW 17.3 mph - 0.00 in   Overcast
10:53 AM 36.0 °F 26.3 °F 32.0 °F 86% 29.78 in 10.0 mi WSW 16.1 mph - N/A   Overcast
11:11 AM 36.0 °F 26.3 °F 32.0 °F 86% 29.78 in 10.0 mi WSW 16.1 mph - N/A   Overcast
11:18 AM 36.0 °F 26.3 °F 32.0 °F 86% 29.78 in 10.0 mi WSW 16.1 mph - N/A   Overcast
11:30 AM 36.0 °F 25.6 °F 32.0 °F 86% 29.78 in 10.0 mi WSW 18.4 mph - N/A   Overcast
11:53 AM 36.0 °F 26.3 °F 30.9 °F 82% 29.79 in 10.0 mi WSW 16.1 mph 24.2 mph N/A   Overcast
12:06 PM 36.0 °F 25.0 °F 30.9 °F 82% 29.78 in 10.0 mi WSW 20.7 mph - N/A   Overcast
12:53 PM 37.0 °F 28.9 °F 30.9 °F 79% 29.78 in 10.0 mi WSW 12.7 mph - N/A   Overcast
1:53 PM 37.0 °F 28.5 °F 30.0 °F 76% 29.78 in 10.0 mi WSW 13.8 mph 21.9 mph N/A   Overcast
2:49 PM 37.4 °F 28.5 °F 30.2 °F 75% 29.79 in 10.0 mi WSW 15.0 mph - 0.00 in   Overcast
2:53 PM 37.0 °F 28.5 °F 30.9 °F 79% 29.80 in 10.0 mi WSW 13.8 mph - 0.00 in   Overcast
3:53 PM 36.0 °F 26.7 °F 30.9 °F 82% 29.83 in 10.0 mi WSW 15.0 mph - N/A   Overcast
4:17 PM 36.0 °F 27.5 °F 30.9 °F 82% 29.83 in 10.0 mi WSW 12.7 mph - N/A   Overcast
4:24 PM 36.0 °F 27.5 °F 30.9 °F 82% 29.83 in 10.0 mi West 12.7 mph - N/A   Overcast
4:36 PM 35.1 °F 25.2 °F 30.9 °F 85% 29.84 in 10.0 mi WSW 16.1 mph - N/A   Overcast
4:53 PM 35.1 °F 26.4 °F 30.9 °F 85% 29.86 in 10.0 mi WSW 12.7 mph - N/A   Overcast
5:28 PM 35.1 °F 27.4 °F 30.9 °F 85% 29.86 in 10.0 mi WSW 10.4 mph - 0.00 in   Overcast
5:36 PM 35.1 °F 26.9 °F 30.9 °F 85% 29.87 in 10.0 mi WSW 11.5 mph - 0.00 in   Overcast
5:53 PM 35.1 °F 25.9 °F 30.9 °F 85% 29.88 in 10.0 mi WSW 13.8 mph - 0.00 in   Overcast
6:00 PM 35.1 °F 26.4 °F 30.9 °F 85% 29.88 in 10.0 mi West 12.7 mph - N/A   Overcast
6:53 PM 35.1 °F 25.9 °F 30.9 °F 85% 29.90 in 10.0 mi WSW 13.8 mph - N/A   Overcast
7:53 PM 35.1 °F 25.9 °F 30.9 °F 85% 29.91 in 10.0 mi West 13.8 mph - N/A   Overcast
8:53 PM 35.1 °F 25.9 °F 30.0 °F 82% 29.92 in 10.0 mi West 13.8 mph - N/A   Overcast
9:53 PM 35.1 °F 25.5 °F 30.0 °F 82% 29.93 in 10.0 mi West 15.0 mph - N/A   Overcast
10:53 PM 34.0 °F 24.6 °F 28.9 °F 82% 29.95 in 9.0 mi West 13.8 mph - N/A   Scattered Clouds
11:53 PM 34.0 °F 25.0 °F 28.9 °F 82% 29.97 in 9.0 mi West 12.7 mph - N/A   Overcast